Wind_Speed
20 20 22 24 25 28 30 33 33 31 29 29 29 30 29 29 29 27 27 24 22 20 22 21 27 21 24 24 22 27 31 26 34 36 33 31 30 30 30 30 30 29 28 27 26 25 23 23 23
22 23 24 26 30 30 32 32 32 30 28 28 28 27 28 29 26 25 26 28 29 26 23 19 17 18 22 24 30 33 31 33 35 36 33 32 32 32 33 33 32 32 32 32 31 29 26 26 25
25 25 28 32 36 30 29 30 28 27 27 27 24 25 26 24 25 23 24 27 29 27 25 19 22 21 23 27 31 32 34 34 35 36 34 34 33 36 36 36 34 35 35 35 34 32 30 28 28
30 31 33 31 32 28 25 26 24 24 25 24 24 23 22 21 21 25 28 29 28 27 25 23 26 27 28 28 30 32 34 35 37 38 37 37 37 37 39 40 38 37 36 35 33 32 31 30 30
34 32 26 25 25 24 24 22 23 24 25 26 25 22 22 25 30 32 33 33 30 29 29 27 28 30 31 33 32 34 35 37 38 38 38 39 39 39 40 41 41 38 37 35 33 32 31 31 31
22 20 19 20 23 24 26 24 22 24 27 29 32 34 36 35 35 35 33 32 33 34 34 34 34 35 34 34 34 35 36 37 37 37 37 38 39 39 39 41 41 39 37 34 34 34 32 31 32
15 15 20 22 25 24 25 25 24 26 28 30 31 32 34 34 33 35 36 36 38 38 39 37 37 37 37 37 35 35 36 36 36 35 36 37 37 38 39 39 39 39 38 36 35 35 35 34 33
14 17 22 23 25 25 24 25 26 27 28 30 32 34 34 35 35 33 36 36 36 36 37 37 37 38 37 37 37 37 37 37 38 38 39 39 38 38 38 39 40 40 40 40 38 37 35 35 35
15 19 20 23 24 25 25 24 25 25 27 29 32 35 37 37 39 39 33 29 30 33 35 36 36 37 38 39 38 38 38 38 38 38 39 39 39 40 41 42 42 42 42 42 41 39 37 35 35
17 21 21 23 24 24 23 23 22 25 27 30 33 36 40 41 36 30 27 30 33 35 38 40 40 40 39 40 41 41 41 40 39 39 39 39 40 41 42 43 43 43 43 43 42 41 41 40 40
20 23 21 23 23 22 24 23 23 26 28 30 33 36 34 29 32 33 35 36 38 38 37 36 39 40 40 39 40 42 42 42 42 42 41 41 41 42 43 44 43 44 45 45 46 46 47 46 46
23 22 20 22 20 21 22 22 20 22 25 27 28 28 30 31 34 36 38 40 38 35 39 39 39 37 35 35 38 39 40 40 41 42 42 43 43 44 44 45 46 48 49 48 49 50 50 50 48
20 19 18 19 20 20 19 19 20 20 22 23 25 28 30 34 36 38 42 42 36 37 42 40 26 33 34 31 30 33 36 37 37 37 39 39 39 40 41 43 46 48 48 49 50 50 50 53 52
18 19 20 19 17 17 18 17 19 23 27 29 31 32 35 37 38 40 42 40 34 37 40 34 31 22 16 23 30 32 34 33 34 35 36 37 39 40 40 41 42 42 42 42 43 45 46 47 46
19 19 17 17 16 15 17 20 25 28 32 34 37 36 34 34 36 38 38 36 35 38 38 32 31 37 43 33 32 30 30 34 34 32 32 35 39 41 42 41 41 42 42 42 42 42 39 39 39
19 16 15 14 13 15 21 24 28 32 36 36 33 34 35 37 35 36 45 39 36 34 33 35 34 36 35 25 27 34 37 36 34 34 37 41 43 45 46 47 47 47 47 47 47 47 46 44 42
16 16 15 14 15 20 24 27 31 36 35 27 30 32 32 32 36 35 31 35 33 29 28 35 35 36 26 34 33 33 35 37 39 40 44 48 51 52 53 53 53 54 54 53 52 52 53 52 49
14 13 12 13 17 21 26 30 33 32 25 26 25 26 27 25 23 25 24 28 35 33 33 35 34 32 39 36 34 35 37 40 43 47 49 51 50 49 50 50 54 56 56 58 58 57 55 56 52
12 11 12 15 19 23 26 28 26 22 23 22 25 27 29 27 27 27 30 34 38 35 37 39 40 39 38 39 39 41 43 46 49 50 47 46 49 51 52 52 52 52 53 54 55 54 52 52 52
12 12 13 17 20 22 25 25 22 18 20 20 24 28 30 30 28 28 31 35 38 38 34 32 32 33 35 39 42 44 45 44 44 46 47 47 47 47 47 47 49 52 54 56 56 55 54 56 54
13 14 16 19 20 22 25 20 18 18 18 22 26 27 29 28 29 32 36 37 35 32 32 33 32 32 32 34 36 38 38 38 40 41 42 44 44 45 47 47 49 49 48 50 53 56 58 58 58
16 17 18 19 20 23 23 20 18 19 19 24 26 28 28 30 34 36 33 30 27 31 32 33 32 32 32 32 33 35 33 34 36 39 41 44 46 48 49 49 49 49 50 50 49 52 53 53 58
17 18 19 19 21 23 22 20 20 20 22 23 27 28 30 34 34 29 24 27 28 28 29 30 33 34 33 31 30 33 38 42 44 45 47 49 52 53 54 55 56 56 55 52 50 51 52 52 53
18 19 19 20 22 23 22 22 20 21 22 24 28 28 32 32 23 23 25 25 27 30 32 33 32 31 31 31 32 39 44 47 50 53 55 55 56 56 57 58 58 59 59 59 57 55 53 54 52
19 19 21 22 24 23 24 23 23 24 23 26 26 30 30 20 21 22 23 27 29 30 31 30 29 29 30 32 38 44 50 53 53 52 53 55 55 52 51 52 51 49 48 49 51 53 57 62 60
20 20 21 23 23 24 25 24 23 22 23 25 26 28 20 20 22 24 27 29 31 32 30 28 26 29 34 35 41 48 54 51 52 53 55 53 52 54 57 58 57 55 53 53 53 52 53 52 55
21 20 21 21 22 25 25 23 21 21 22 23 26 19 18 20 23 26 29 31 30 29 28 28 30 34 39 41 48 53 56 56 55 52 53 57 60 61 62 62 61 58 60 59 58 54 51 49 51
22 22 21 23 24 26 25 23 20 19 21 23 18 16 18 21 24 26 25 28 32 32 33 33 35 37 41 46 51 53 54 57 55 55 59 63 67 69 70 69 68 67 63 60 61 61 59 56 51
24 22 22 22 24 25 24 20 19 17 20 15 14 15 18 21 22 23 28 31 37 40 36 33 36 38 44 49 53 54 57 56 56 61 66 70 71 71 69 65 63 63 62 60 60 63 63 56 53
26 23 22 22 24 25 23 17 15 16 11 9 12 15 18 21 23 26 30 33 37 40 37 35 38 44 50 54 54 58 54 58 61 66 70 68 66 62 60 56 52 48 46 47 45 49 51 50 51
Wind_Direction
290 288 288 288 291 289 289 286 283 283 284 283 284 279 272 266 262 265 270 277 291 297 301 310 284 292 302 295 270 273 288 263 280 282 283 283 282 281 279 277 279 283 284 285 285 283 280 275 269
289 290 288 287 285 288 285 283 282 285 284 283 278 275 276 269 262 261 267 272 283 288 297 311 305 290 278 276 278 275 278 272 280 283 283 283 281 279 277 278 280 283 284 286 287 284 278 272 267
289 291 291 293 292 288 285 283 286 288 284 277 273 272 271 268 264 269 274 281 288 302 302 302 302 306 299 285 280 280 281 282 283 283 284 283 282 283 282 280 280 281 283 283 283 282 278 271 266
289 292 293 289 288 288 284 285 289 285 280 278 276 268 269 268 272 271 275 282 293 294 295 292 289 297 297 296 286 282 280 280 281 284 287 287 286 284 282 283 283 283 283 282 280 277 275 272 267
291 294 290 283 281 284 286 286 285 280 275 272 272 265 264 269 273 277 281 287 294 294 295 293 291 289 290 286 282 277 275 276 277 280 282 283 284 285 285 284 283 283 282 280 277 275 270 268 266
293 289 280 278 282 283 284 282 282 280 280 277 275 282 285 287 294 292 288 290 292 292 291 291 290 289 286 285 281 276 274 274 274 275 276 278 280 282 283 283 282 281 278 276 275 272 269 266 263
292 284 272 274 277 280 284 290 289 286 285 281 283 285 290 289 292 291 290 290 291 292 292 291 288 284 282 281 277 274 273 271 270 270 271 273 275 277 278 279 279 279 276 273 269 268 267 265 262
283 277 275 280 281 284 291 291 290 290 288 286 287 287 286 288 289 290 290 289 290 288 287 286 284 283 282 279 275 272 272 271 271 271 270 269 270 271 273 274 275 276 275 273 271 267 264 261 260
281 275 280 278 281 288 291 294 297 298 293 292 290 289 290 289 290 297 297 295 297 299 296 291 287 283 281 281 278 275 272 271 272 271 272 274 273 272 270 270 271 272 274 274 273 270 263 256 257
280 276 277 280 283 287 290 295 298 296 298 294 290 288 290 293 295 288 284 293 297 303 300 293 289 284 279 276 277 277 277 276 276 274 273 272 271 271 270 272 272 272 272 273 272 269 268 265 261
278 276 284 285 287 291 295 298 299 297 296 296 294 291 291 292 295 294 286 286 300 302 301 296 288 284 284 282 279 278 277 276 276 277 277 276 275 274 272 272 272 273 274 275 274 273 271 270 269
278 293 291 297 302 299 301 303 308 303 300 298 295 290 290 295 296 293 289 293 308 310 309 304 295 286 282 280 279 277 275 275 275 276 276 275 273 273 273 274 276 275 276 275 275 276 275 273 270
290 292 298 298 297 299 299 303 301 303 303 301 298 296 299 297 298 296 296 301 304 306 308 307 287 293 273 274 279 281 284 284 281 280 281 278 274 272 273 274 273 273 273 273 273 273 273 273 273
290 292 295 298 297 301 306 314 313 310 310 310 308 303 299 297 296 298 298 293 300 303 311 310 303 268 290 287 280 277 280 282 283 283 284 282 279 276 275 273 271 272 272 271 271 272 271 272 273
287 289 295 298 304 311 313 315 318 315 312 310 310 309 301 297 291 294 295 319 310 304 308 311 296 270 293 286 282 287 287 287 282 279 279 280 281 279 276 274 271 272 270 270 270 270 268 271 273
287 290 295 299 307 314 319 319 313 311 313 315 311 311 310 305 298 295 312 311 306 306 305 308 300 295 285 275 280 284 286 286 282 273 281 281 279 279 278 276 273 271 270 271 270 270 269 268 267
284 295 301 306 315 319 316 314 315 314 314 312 315 319 318 311 300 300 306 316 319 309 309 307 302 302 255 295 294 288 283 284 284 282 279 278 277 278 275 271 269 268 269 269 268 267 266 265 264
285 293 296 304 313 314 312 312 311 313 316 314 318 323 317 316 311 309 309 317 324 317 308 303 299 291 292 291 288 287 282 281 282 284 286 284 280 277 277 276 270 266 266 266 266 267 264 262 260
276 278 287 303 307 304 305 311 316 314 311 311 320 317 315 316 317 316 316 310 312 309 303 300 298 294 291 291 291 288 289 291 291 290 288 285 281 279 277 274 271 269 264 263 263 263 262 262 257
266 271 289 298 299 304 312 320 311 310 311 313 321 320 317 315 317 313 309 306 309 310 307 304 299 299 296 292 293 296 297 296 296 294 291 288 286 284 283 280 275 271 268 266 263 261 259 259 258
258 272 286 297 303 310 319 319 315 308 314 317 325 321 315 316 317 314 313 315 316 314 317 320 316 315 310 303 302 301 299 297 295 291 290 291 289 287 286 283 280 277 272 268 266 264 262 259 256
257 273 291 302 305 315 319 314 318 312 313 323 324 319 319 318 317 319 319 320 320 320 320 318 313 307 303 303 302 301 302 301 299 297 294 292 290 288 285 284 281 276 272 270 268 263 261 259 258
268 282 298 301 308 317 319 311 312 304 311 317 318 321 320 320 319 322 325 321 319 318 316 314 315 313 311 310 307 306 306 304 302 298 295 294 293 291 288 285 283 279 275 269 264 262 261 258 255
275 289 298 302 306 313 312 307 308 308 317 317 322 323 323 319 324 322 319 318 319 319 322 320 319 316 315 312 308 309 308 306 303 302 301 301 299 295 290 285 280 277 274 270 266 259 254 254 252
279 292 296 300 304 309 309 311 308 310 319 322 323 324 320 323 317 317 322 325 325 324 319 319 321 319 317 315 318 319 315 310 307 305 301 298 295 293 291 287 285 278 272 270 270 266 260 255 251
281 287 292 295 301 305 308 313 313 317 325 323 324 324 323 322 325 332 330 330 327 323 323 325 328 331 329 322 320 320 320 314 310 307 305 302 296 293 291 287 283 275 268 268 270 265 263 260 256
277 282 286 291 296 302 308 314 316 322 326 323 324 326 326 331 338 333 331 331 331 331 330 329 326 327 324 320 317 318 321 317 314 310 305 299 294 291 287 284 279 274 266 263 263 263 260 258 255
273 278 284 288 293 299 309 315 319 325 322 323 327 325 330 340 335 335 344 345 343 339 335 331 329 327 328 327 324 321 321 317 312 305 302 300 296 291 287 281 276 271 267 263 260 260 260 258 256
269 273 276 281 287 294 303 311 321 320 320 333 329 330 336 334 336 338 340 345 348 345 339 333 333 331 331 330 329 326 322 320 317 313 308 304 299 294 290 286 281 276 270 264 259 258 258 256 247
268 269 270 273 281 288 302 316 316 316 326 324 322 333 335 332 333 335 343 348 349 350 340 332 335 333 330 329 330 328 327 328 323 321 314 309 303 303 300 293 282 272 264 260 255 254 254 245 238
Height
5867 5866 5865 5865 5867 5862 5860 5858 5856 5856 5858 5857 5856 5855 5854 5853 5853 5854 5850 5849 5847 5847 5846 5846 5845 5844 5845 5844 5844 5844 5843 5841 5840 5839 5838 5837 5837 5838 5838 5838 5838 5838 5838 5838 5839 5840 5840 5840 5839
5863 5863 5862 5860 5858 5857 5854 5852 5852 5852 5852 5852 5851 5850 5850 5849 5849 5847 5846 5844 5843 5842 5842 5841 5840 5839 5840 5840 5840 5838 5836 5835 5834 5833 5832 5831 5831 5832 5832 5833 5833 5833 5833 5832 5832 5832 5834 5834 5834
5859 5859 5858 5854 5851 5852 5850 5847 5848 5848 5848 5847 5847 5846 5845 5845 5844 5842 5841 5839 5839 5838 5837 5837 5837 5837 5836 5835 5834 5832 5830 5828 5827 5826 5825 5825 5824 5824 5824 5825 5826 5827 5827 5826 5826 5825 5826 5827 5827
5854 5855 5852 5848 5844 5844 5845 5843 5844 5844 5843 5843 5842 5842 5843 5841 5839 5837 5836 5834 5834 5834 5834 5833 5832 5832 5831 5830 5828 5826 5825 5823 5821 5820 5818 5818 5817 5817 5817 5817 5818 5819 5820 5819 5819 5819 5819 5819 5820
5849 5849 5846 5842 5840 5840 5840 5841 5840 5840 5840 5839 5839 5838 5837 5836 5834 5832 5831 5830 5828 5827 5826 5825 5824 5824 5823 5821 5820 5819 5818 5817 5816 5814 5813 5812 5810 5809 5809 5809 5810 5810 5811 5812 5812 5812 5813 5813 5813
5845 5844 5842 5838 5837 5837 5835 5836 5838 5837 5836 5835 5835 5835 5834 5832 5831 5828 5827 5825 5823 5821 5820 5818 5817 5815 5813 5812 5811 5810 5809 5808 5808 5807 5806 5805 5804 5803 5801 5801 5801 5802 5803 5804 5804 5805 5805 5806 5807
5841 5840 5837 5835 5833 5833 5833 5833 5833 5833 5833 5832 5831 5830 5829 5828 5826 5824 5821 5819 5817 5815 5813 5811 5808 5806 5805 5803 5802 5800 5800 5799 5798 5798 5798 5797 5796 5795 5794 5793 5793 5793 5793 5795 5796 5797 5797 5798 5800
5838 5836 5834 5834 5831 5830 5831 5830 5829 5829 5829 5827 5827 5826 5824 5823 5820 5817 5815 5812 5810 5808 5806 5804 5801 5799 5797 5796 5794 5792 5791 5790 5789 5789 5789 5788 5788 5787 5786 5785 5785 5784 5784 5786 5787 5788 5789 5790 5792
5833 5832 5832 5829 5829 5828 5828 5827 5826 5826 5825 5823 5822 5821 5818 5816 5813 5810 5807 5804 5802 5800 5799 5797 5795 5792 5790 5787 5786 5784 5783 5781 5781 5781 5780 5780 5780 5779 5778 5778 5777 5776 5776 5776 5778 5779 5780 5782 5782
5829 5827 5827 5827 5826 5826 5823 5824 5823 5822 5821 5819 5817 5816 5813 5809 5806 5802 5800 5799 5797 5794 5790 5788 5785 5783 5781 5780 5778 5776 5775 5773 5772 5772 5771 5771 5770 5770 5769 5769 5768 5767 5767 5767 5769 5770 5771 5772 5773
5823 5823 5824 5824 5824 5824 5821 5821 5820 5818 5816 5814 5813 5810 5806 5802 5798 5796 5793 5792 5789 5786 5782 5779 5775 5772 5769 5768 5767 5766 5765 5765 5764 5763 5762 5762 5761 5761 5760 5759 5758 5758 5757 5758 5758 5759 5760 5761 5762
5820 5821 5821 5820 5821 5819 5817 5817 5815 5814 5812 5810 5807 5805 5801 5797 5794 5790 5787 5785 5782 5778 5773 5770 5765 5761 5758 5756 5755 5755 5755 5755 5754 5753 5752 5752 5751 5750 5750 5748 5748 5747 5746 5746 5746 5746 5747 5748 5749
5817 5817 5818 5817 5815 5814 5813 5812 5811 5809 5807 5805 5802 5799 5796 5792 5788 5784 5781 5778 5773 5768 5764 5760 5756 5754 5750 5748 5746 5745 5745 5744 5743 5743 5742 5741 5740 5740 5739 5738 5736 5735 5735 5735 5734 5734 5734 5735 5737
5814 5813 5812 5812 5811 5809 5808 5807 5806 5804 5801 5798 5795 5792 5789 5785 5782 5777 5772 5768 5764 5761 5756 5753 5749 5741 5741 5741 5740 5738 5737 5736 5734 5733 5732 5731 5730 5729 5727 5726 5725 5724 5723 5723 5723 5723 5723 5723 5724
5810 5809 5809 5807 5806 5805 5804 5803 5799 5797 5794 5791 5788 5784 5780 5776 5773 5769 5764 5759 5758 5754 5749 5745 5743 5741 5736 5734 5733 5732 5730 5728 5726 5724 5722 5721 5719 5718 5716 5715 5714 5712 5711 5712 5712 5712 5712 5713 5713
5804 5805 5805 5803 5802 5801 5800 5797 5794 5791 5787 5783 5779 5775 5771 5769 5763 5760 5754 5752 5749 5744 5741 5738 5733 5733 5729 5727 5727 5723 5721 5720 5717 5715 5713 5711 5710 5707 5705 5703 5702 5700 5699 5699 5700 5700 5701 5702 5703
5800 5800 5799 5799 5798 5796 5794 5791 5787 5784 5781 5777 5771 5766 5762 5758 5755 5751 5748 5745 5739 5735 5732 5729 5727 5724 5719 5718 5717 5715 5713 5710 5707 5705 5702 5700 5697 5694 5693 5691 5690 5688 5687 5687 5687 5687 5688 5689 5691
5797 5797 5797 5796 5795 5792 5789 5786 5783 5779 5775 5770 5765 5760 5757 5753 5749 5746 5743 5739 5735 5730 5726 5723 5720 5718 5712 5710 5709 5706 5704 5701 5698 5694 5690 5686 5684 5681 5678 5676 5676 5674 5674 5673 5673 5673 5674 5675 5677
5794 5794 5794 5792 5791 5789 5786 5782 5778 5774 5770 5766 5762 5758 5754 5750 5745 5742 5738 5733 5730 5726 5721 5716 5712 5708 5705 5701 5699 5697 5693 5689 5685 5681 5676 5673 5670 5668 5665 5663 5662 5660 5659 5658 5658 5658 5660 5660 5663
5791 5791 5790 5789 5788 5785 5781 5777 5774 5771 5767 5762 5758 5754 5750 5745 5741 5737 5732 5727 5723 5718 5713 5709 5704 5698 5694 5692 5689 5685 5682 5678 5674 5669 5665 5661 5657 5654 5650 5648 5646 5644 5643 5643 5643 5644 5646 5646 5649
5787 5787 5787 5786 5783 5780 5776 5774 5770 5767 5763 5758 5754 5750 5746 5741 5736 5731 5725 5720 5715 5710 5705 5699 5695 5690 5686 5683 5680 5676 5672 5668 5664 5659 5654 5649 5644 5640 5637 5633 5630 5628 5626 5626 5626 5626 5628 5630 5633
5783 5783 5782 5780 5778 5775 5772 5770 5767 5762 5758 5754 5751 5746 5741 5736 5730 5725 5720 5714 5709 5704 5700 5695 5691 5686 5681 5678 5673 5669 5664 5659 5654 5648 5643 5637 5631 5625 5620 5617 5614 5612 5611 5610 5610 5610 5611 5613 5615
5779 5778 5777 5775 5772 5770 5767 5766 5763 5758 5755 5751 5747 5742 5737 5731 5725 5720 5715 5710 5706 5702 5696 5691 5686 5680 5674 5670 5664 5659 5653 5646 5641 5634 5628 5622 5616 5611 5605 5600 5596 5594 5592 5593 5593 5594 5595 5597 5600
5774 5773 5771 5770 5768 5766 5764 5762 5759 5754 5750 5747 5743 5738 5733 5727 5722 5717 5712 5708 5703 5697 5690 5685 5679 5673 5667 5661 5655 5649 5643 5635 5627 5619 5612 5605 5599 5592 5587 5581 5577 5573 5571 5571 5573 5574 5577 5581 5584
5769 5768 5766 5766 5763 5762 5759 5757 5753 5749 5746 5743 5739 5735 5729 5724 5720 5716 5711 5706 5699 5693 5686 5679 5673 5666 5660 5654 5647 5639 5631 5622 5612 5604 5596 5588 5579 5572 5566 5561 5557 5554 5552 5551 5551 5553 5557 5561 5566
5764 5764 5763 5760 5759 5758 5755 5752 5749 5745 5742 5739 5736 5731 5726 5722 5717 5712 5707 5701 5694 5687 5680 5674 5667 5660 5653 5646 5638 5629 5619 5609 5598 5588 5578 5569 5561 5554 5548 5542 5537 5534 5533 5532 5532 5533 5536 5539 5544
5760 5759 5758 5756 5754 5752 5751 5748 5745 5742 5739 5736 5732 5727 5724 5719 5714 5709 5703 5696 5689 5682 5675 5668 5661 5653 5646 5637 5629 5619 5607 5595 5584 5573 5563 5553 5543 5534 5527 5520 5515 5511 5510 5510 5512 5515 5517 5521 5526
5754 5753 5753 5751 5749 5748 5745 5743 5741 5739 5736 5732 5728 5725 5721 5717 5712 5707 5700 5693 5685 5676 5668 5660 5653 5646 5638 5629 5618 5607 5595 5582 5569 5557 5545 5533 5521 5509 5499 5492 5487 5484 5484 5486 5488 5492 5496 5501 5507
5747 5747 5747 5746 5745 5742 5741 5740 5738 5735 5732 5728 5725 5722 5719 5715 5710 5704 5697 5689 5680 5671 5662 5655 5647 5639 5630 5620 5608 5595 5581 5567 5553 5540 5524 5509 5494 5480 5469 5460 5456 5455 5456 5459 5462 5467 5473 5480 5487
5740 5740 5740 5740 5740 5737 5736 5737 5734 5731 5728 5726 5723 5720 5717 5712 5707 5700 5693 5685 5677 5668 5659 5650 5643 5633 5622 5611 5597 5582 5567 5553 5537 5520 5501 5482 5465 5452 5442 5434 5429 5428 5429 5433 5438 5443 5449 5457 5466